Location: Schommer Observatory
(40.5200°N, 74.4500°W)
Time: 09:34:34
(UTC-05:00)

Envisat - Pass Details

Date: 20 November 2018
Orbit: 764 x 766 km, 98.2° (Epoch: 13 December)

Event Time Altitude Azimuth Distance (km) Brightness Sun altitude
Rises 06:11:10 0° 38° (NE) 3,237 6.5 -7.6°
Reaches altitude 10° 06:15:46 10° 76° (ENE) 2,303 6.5 -6.8°
Maximum altitude 06:16:49 11° 88° (E) 2,261 6.7 -6.6°
Drops below altitude 10° 06:17:51 10° 100° (E) 2,299 7.2 -6.4°
Sets 06:22:25 0° 139° (SE) 3,217 7.5 -5.6°
